Change the Weather History Date:

Saturday, August 17, 2013

  Actual Average Record
Temperature  
Mean Temperature 64 °F -  
Max Temperature 80 °F 78 °F 100 °F (1988)
Min Temperature 50 °F 60 °F 40 °F (1978)
Growing Degree Days 14 (Base 50)    
Moisture  
Dew Point 54 °F    
Average Humidity 83    
Maximum Humidity 100    
Minimum Humidity 40    
Precipitation  
Precipitation 0.01 in - - ()
Sea Level Pressure  
Sea Level Pressure 30.22 in    
Wind  
Wind Speed 1 mph (ESE)    
Max Wind Speed 10 mph    
Max Gust Speed -    
Visibility 4 miles    
Events Fog    
Averages and records for this station are not official NWS values.
T = Trace of Precipitation, MM = Missing Value Source: NWS Daily Summary

Daily Weather History Graph

Daily Weather History Graph

Search for Another Location

Airport or City:

Trip Planner

Search our weather history database for the weather conditions in past years. The results will help you decide how hot, cold, wet, or windy it might be!

Date:

Astronomy

Aug. 17, 2013 Rise Set
Actual Time 6:00 AM CDT 7:49 PM CDT
Civil Twilight 5:30 AM CDT 8:19 PM CDT
Nautical Twilight 4:53 AM CDT 8:56 PM CDT
Astronomical Twilight 4:13 AM CDT 9:36 PM CDT
Moon 5:07 PM CDT (8/17) 2:01 AM CDT (8/17)
Length of Visible Light 14h 49m
Length of Day
13h 48m
Waxing Gibbous, 84% of the Moon is Illuminated
Aug 17
Waxing Gibbous
Aug 20
Full
Aug 28
Last Quarter
Sep 5
New
Sep 12
First Quarter

Hourly Weather History & Observations

Time (CDT) Temp. Dew Point Humidity Pressure Visibility Wind Dir Wind Speed Gust Speed Precip Events Conditions
12:01 AM 53.6 °F 53.6 °F 100% 30.21 in 1.0 mi Calm Calm - N/A   Clear
12:04 AM 53.6 °F 53.6 °F 100% 30.21 in 3.0 mi Calm Calm - N/A   Clear
12:36 AM 53.6 °F 51.8 °F 94% 30.22 in 0.8 mi Calm Calm - N/A   Clear
12:45 AM 53.6 °F 53.6 °F 100% 30.21 in 0.2 mi Calm Calm - N/A Fog Fog
12:53 AM 55.0 °F 53.1 °F 93% 30.21 in 0.2 mi Calm Calm - N/A Fog Fog
1:13 AM 53.6 °F 53.6 °F 100% 30.21 in 0.2 mi Calm Calm - N/A Fog Fog
1:24 AM 53.6 °F 51.8 °F 94% 30.22 in 0.2 mi Calm Calm - N/A Fog Fog
1:38 AM 51.8 °F 50.0 °F 94% 30.22 in 1.0 mi Calm Calm - N/A   Mist
1:43 AM 53.6 °F 51.8 °F 94% 30.22 in 0.2 mi Calm Calm - N/A Fog Fog
1:53 AM 52.0 °F 51.1 °F 97% 30.22 in 0.2 mi Calm Calm - N/A Fog Fog
2:01 AM 51.8 °F 50.0 °F 94% 30.22 in 0.2 mi Calm Calm - N/A Fog Fog
2:36 AM 51.8 °F 50.0 °F 94% 30.22 in 0.5 mi Calm Calm - N/A Fog Fog
2:45 AM 51.8 °F 50.0 °F 94% 30.22 in 0.2 mi Calm Calm - N/A Fog Fog
2:53 AM 53.1 °F 51.1 °F 93% 30.22 in 0.2 mi Calm Calm - N/A Fog Fog
3:01 AM 53.6 °F 51.8 °F 94% 30.22 in 0.5 mi Calm Calm - N/A Fog Fog
3:13 AM 51.8 °F 50.0 °F 94% 30.22 in 0.2 mi Calm Calm - N/A Fog Fog
3:34 AM 51.8 °F 51.8 °F 100% 30.23 in 0.2 mi Calm Calm - N/A Fog Fog
3:53 AM 53.1 °F 51.1 °F 93% 30.22 in 0.2 mi Calm Calm - N/A Fog Fog
4:53 AM 51.1 °F 50.0 °F 96% 30.23 in 0.2 mi Calm Calm - 0.01 in Fog Fog
5:53 AM 50.0 °F 48.9 °F 96% 30.24 in 0.2 mi Calm Calm - N/A Fog Fog
6:53 AM 53.1 °F 51.1 °F 93% 30.26 in 0.2 mi Calm Calm - N/A Fog Fog
7:11 AM 55.4 °F 55.4 °F 100% 30.26 in 0.5 mi Calm Calm - N/A Fog Fog
7:53 AM 60.1 °F 59.0 °F 96% 30.27 in 3.0 mi Calm Calm - N/A   Clear
8:53 AM 70.0 °F 64.0 °F 81% 30.27 in 9.0 mi Calm Calm - N/A   Clear
9:53 AM 73.9 °F 61.0 °F 64% 30.26 in 10.0 mi Variable 3.5 mph - N/A   Clear
10:53 AM 77.0 °F 55.0 °F 47% 30.26 in 10.0 mi ESE 5.8 mph - N/A   Clear
11:53 AM 78.1 °F 52.0 °F 40% 30.25 in 10.0 mi East 8.1 mph - N/A   Partly Cloudy
12:53 PM 78.1 °F 54.0 °F 43% 30.24 in 10.0 mi East 10.4 mph - N/A   Clear
1:53 PM 79.0 °F 54.0 °F 42% 30.22 in 10.0 mi ESE 8.1 mph - N/A   Clear
2:53 PM 78.1 °F 53.1 °F 42% 30.22 in 10.0 mi ESE 9.2 mph - N/A   Clear
3:53 PM 78.1 °F 54.0 °F 43% 30.22 in 10.0 mi ESE 6.9 mph - N/A   Clear
4:53 PM 75.9 °F 54.0 °F 46% 30.21 in 10.0 mi East 9.2 mph - N/A   Clear
5:53 PM 75.0 °F 55.0 °F 50% 30.21 in 10.0 mi ESE 8.1 mph - N/A   Clear
6:53 PM 72.0 °F 57.0 °F 59% 30.21 in 10.0 mi ENE 3.5 mph - N/A   Clear
7:53 PM 64.0 °F 57.0 °F 78% 30.20 in 10.0 mi Calm Calm - N/A   Clear
8:53 PM 62.1 °F 57.9 °F 86% 30.20 in 10.0 mi Calm Calm - N/A   Clear
9:53 PM 59.0 °F 57.0 °F 93% 30.20 in 8.0 mi Calm Calm - N/A   Clear
10:43 PM 57.2 °F 55.4 °F 94% 30.19 in 2.5 mi Calm Calm - N/A   Clear
10:51 PM 55.4 °F 55.4 °F 100% 30.19 in 8.0 mi Calm Calm - N/A   Clear
10:53 PM 55.9 °F 55.0 °F 97% 30.19 in 8.0 mi Calm Calm - N/A   Clear
11:53 PM 55.0 °F 54.0 °F 96% 30.19 in 5.0 mi Calm Calm - N/A   Clear